Location: St. Louis
(38.6270°N, 90.1994°W)
Time: 00:37:44
(UTC-06:00)

Courier 1B Rocket - Pass Details

Date: 06 December 2021
Orbit: 920 x 1202 km, 28.2° (Epoch: 16 January)

Event Time Altitude Azimuth Distance (km) Brightness Sun altitude
Rises 00:13:56 0° 255° (WSW) 3,622 - -73.2°
Reaches altitude 10° 00:16:53 10° 245° (WSW) 2,646 - -73.0°
Maximum altitude 00:22:20 31° 185° (S) 1,558 - -72.6°
Drops below altitude 10° 00:27:43 10° 126° (SE) 2,603 - -72.2°
Sets 00:30:35 0° 116° (ESE) 3,553 - -71.9°
